Weather History for Caribou, ME

Change the Weather History Date:

Wednesday, January 2, 2013

  Actual Average Record
Temperature  
Mean Temperature 1 °F 12 °F  
Max Temperature 7 °F 21 °F 47 °F (1945)
Min Temperature -5 °F 3 °F -28 °F (2014)
Degree Days  
Heating Degree Days 64 53  
Month to date heating degree days 118 106  
Since 1 July heating degree days 3297 3700  
Cooling Degree Days 0 0  
Month to date cooling degree days 0 0  
Year to date cooling degree days 0 0  
Moisture  
Dew Point -9 °F    
Average Humidity 62    
Maximum Humidity 69    
Minimum Humidity 55    
Precipitation  
Precipitation 0.00 in 0.09 in 0.64 in (2010)
Month to date precipitation 0.03 0.18  
Year to date precipitation 0.03 0.18  
Snow  
Snow 0.00 in 0.80 in 8.50 in (2010)
Month to date snowfall 0.4 1.6  
Since 1 July snowfall 28.9 36.7  
Snow Depth 6.00 in    
Sea Level Pressure  
Sea Level Pressure 29.74 in    
Wind  
Wind Speed 14 mph (WNW)    
Max Wind Speed 24 mph    
Max Gust Speed 32 mph    
Visibility 10 miles    
Events      
T = Trace of Precipitation, MM = Missing Value Source: NWS Daily Summary

Daily Weather History Graph

Daily Weather History Graph

Search for Another Location

Airport:

Trip Planner

Search our weather history database for the weather conditions in past years. The results will help you decide how hot, cold, wet, or windy it might be!

Date:

Astronomy

Jan. 02, 2013 Rise Set
Actual Time 7:17 AM EST 3:55 PM EST
Civil Twilight 6:42 AM EST 4:30 PM EST
Nautical Twilight 6:03 AM EST 5:08 PM EST
Astronomical Twilight 5:26 AM EST 5:45 PM EST
Moon 9:46 PM EST (1/2) 9:36 AM EST (1/2)
Length of Visible Light 9h 48m
Length of Day
8h 38m
Waning Gibbous, 75% of the Moon is Illuminated
Jan 2
Waning Gibbous
Jan 4
Last Quarter
Jan 11
New
Jan 18
First Quarter
Jan 26
Full

Hourly Weather History & Observations

Time (EST) Temp. Windchill Dew Point Humidity Pressure Visibility Wind Dir Wind Speed Gust Speed Precip Events Conditions
12:54 AM 1.0 °F -17.3 °F -9.0 °F 63% 29.65 in 10.0 mi WNW 13.8 mph 23.0 mph N/A   Clear
1:54 AM -0.0 °F -17.1 °F -9.9 °F 63% 29.67 in 10.0 mi West 11.5 mph 19.6 mph N/A   Clear
2:54 AM -0.9 °F -15.3 °F -11.0 °F 62% 29.68 in 10.0 mi West 8.1 mph 18.4 mph N/A   Clear
3:54 AM -2.0 °F -19.6 °F -11.0 °F 66% 29.67 in 10.0 mi West 11.5 mph 20.7 mph N/A   Clear
4:54 AM -2.9 °F -19.8 °F -11.9 °F 65% 29.67 in 10.0 mi West 10.4 mph 21.9 mph N/A   Clear
5:54 AM -2.9 °F -19.8 °F -13.0 °F 62% 29.68 in 10.0 mi WNW 10.4 mph 18.4 mph N/A   Clear
7:54 AM -4.0 °F -17.8 °F -14.1 °F 62% 29.69 in 10.0 mi West 6.9 mph - N/A   Clear
8:54 AM -2.0 °F -16.6 °F -13.0 °F 60% 29.69 in 10.0 mi WNW 8.1 mph - N/A   Clear
9:54 AM 1.0 °F -18.7 °F -11.9 °F 55% 29.69 in 9.0 mi WNW 16.1 mph 24.2 mph N/A   Clear
10:54 AM 1.9 °F -19.2 °F -11.0 °F 55% 29.68 in 9.0 mi WNW 19.6 mph 31.1 mph N/A   Clear
11:54 AM 3.9 °F -16.1 °F -9.0 °F 55% 29.67 in 10.0 mi WNW 18.4 mph 27.6 mph N/A   Clear
12:54 PM 5.0 °F -13.0 °F -8.0 °F 55% 29.67 in 10.0 mi WNW 15.0 mph 32.2 mph N/A   Clear
1:54 PM 6.1 °F -13.3 °F -8.0 °F 53% 29.68 in 10.0 mi WNW 18.4 mph 25.3 mph N/A   Clear
2:54 PM 6.1 °F -12.8 °F -7.1 °F 55% 29.69 in 10.0 mi WNW 17.3 mph 31.1 mph N/A   Partly Cloudy
3:54 PM 6.1 °F -12.8 °F -7.1 °F 55% 29.74 in 10.0 mi NW 17.3 mph 24.2 mph N/A   Partly Cloudy
4:54 PM 5.0 °F -13.6 °F -6.0 °F 61% 29.77 in 10.0 mi WNW 16.1 mph 24.2 mph N/A   Clear
5:54 PM 3.9 °F -16.1 °F -6.0 °F 64% 29.81 in 10.0 mi NW 18.4 mph 25.3 mph N/A   Clear
6:54 PM 3.9 °F -14.3 °F -6.0 °F 64% 29.85 in 10.0 mi NW 15.0 mph 24.2 mph N/A   Clear
7:54 PM 3.0 °F -15.5 °F -7.1 °F 63% 29.87 in 10.0 mi NW 15.0 mph 27.6 mph N/A   Clear
8:54 PM 1.9 °F -16.9 °F -8.0 °F 63% 29.89 in 10.0 mi NW 15.0 mph 24.2 mph N/A   Clear
9:54 PM 1.9 °F -16.9 °F -8.0 °F 63% 29.90 in 10.0 mi NW 15.0 mph 24.2 mph N/A   Clear
10:54 PM 1.0 °F -17.3 °F -8.0 °F 66% 29.93 in 10.0 mi NW 13.8 mph 20.7 mph N/A   Clear
11:54 PM 1.0 °F -15.8 °F -8.0 °F 66% 29.94 in 10.0 mi NW 11.5 mph - N/A   Clear